When you browse on this site, cookies collect data to enhance your experience and personalize the content and advertising you see.
Visit our Privacy Policy to learn more. By continuing to use the site, you agree to this use of cookies and data.
  • Em Portugal
  • Lista de países
  • Para 7 dias
  • Temperatura da água
  • Mapas de satélite
  • Mapa do tempo
  • Widgets de tempo
  • user-avatar
    Iniciar Sessão

    Previsão horária em Zalaegerszeg

    Hoje, 20 Julho, Sábado

    Tempo Temperatura Precipitação Vento Pressão Humidade
    00:00 +20°C° 0 mm 1 m/s 748 mmHg 81%
    01:00 +20°C° 0 mm 1 m/s 749 mmHg 82%
    02:00 +19°C° 0 mm 1 m/s 748 mmHg 83%
    03:00 +19°C° 0 mm 1 m/s 748 mmHg 85%
    04:00 +19°C° 0 mm 1 m/s 748 mmHg 87%
    05:00 +20°C° 0 mm 1 m/s 749 mmHg 83%
    06:00 +22°C° 0 mm 1 m/s 749 mmHg 79%
    07:00 +23°C° 0 mm 2 m/s 749 mmHg 74%
    08:00 +25°C° 0 mm 2 m/s 749 mmHg 67%
    09:00 +27°C° 0 mm 3 m/s 749 mmHg 60%
    10:00 +29°C° 0 mm 3 m/s 749 mmHg 52%
    11:00 +30°C° 0 mm 4 m/s 749 mmHg 49%
    12:00 +32°C° 0 mm 4 m/s 749 mmHg 45%
    13:00 +33°C° 0 mm 5 m/s 748 mmHg 42%
    14:00 +33°C° 0 mm 4 m/s 748 mmHg 42%
    15:00 +33°C° 0 mm 4 m/s 748 mmHg 42%
    16:00 +33°C° 0 mm 4 m/s 748 mmHg 42%
    17:00 +32°C° 0 mm 4 m/s 748 mmHg 49%
    18:00 +29°C° 0 mm 3 m/s 748 mmHg 56%
    19:00 +27°C° 0 mm 3 m/s 748 mmHg 63%
    20:00 +26°C° 0 mm 3 m/s 748 mmHg 67%
    21:00 +25°C° 0 mm 3 m/s 749 mmHg 71%
    22:00 +24°C° 0 mm 3 m/s 749 mmHg 74%
    23:00 +23°C° 0 mm 2 m/s 749 mmHg 76%

    Amanhã, 21 Julho, Domingo

    Tempo Temperatura Precipitação Vento Pressão Humidade
    00:00 +21°C° 0 mm 2 m/s 749 mmHg 78%
    01:00 +20°C° 0 mm 2 m/s 749 mmHg 80%
    02:00 +20°C° 0 mm 2 m/s 749 mmHg 81%
    03:00 +19°C° 0 mm 2 m/s 749 mmHg 82%
    04:00 +19°C° 0 mm 2 m/s 748 mmHg 82%
    05:00 +21°C° 0 mm 1 m/s 749 mmHg 78%
    06:00 +23°C° 0 mm 1 m/s 749 mmHg 74%
    07:00 +24°C° 0 mm 1 m/s 750 mmHg 70%
    08:00 +26°C° 0 mm 2 m/s 750 mmHg 64%
    09:00 +28°C° 0 mm 2 m/s 750 mmHg 59%
    10:00 +30°C° 0 mm 3 m/s 750 mmHg 53%
    11:00 +31°C° 0 mm 3 m/s 750 mmHg 50%
    12:00 +33°C° 0 mm 3 m/s 750 mmHg 47%
    13:00 +34°C° 0 mm 2 m/s 750 mmHg 44%
    14:00 +31°C° 0.2 mm 3 m/s 750 mmHg 50%
    15:00 +30°C° 0.2 mm 4 m/s 750 mmHg 56%
    16:00 +28°C° 0.2 mm 5 m/s 750 mmHg 62%
    17:00 +26°C° 0.6 mm 4 m/s 750 mmHg 69%
    18:00 +24°C° 0.6 mm 3 m/s 750 mmHg 77%
    19:00 +23°C° 0.6 mm 2 m/s 751 mmHg 85%
    20:00 +21°C° 0 mm 2 m/s 751 mmHg 86%
    21:00 +21°C° 0 mm 2 m/s 751 mmHg 87%
    22:00 +20°C° 0 mm 2 m/s 752 mmHg 88%
    23:00 +20°C° 0 mm 2 m/s 752 mmHg 87%

    Depois de amanhã, 22 Julho, Segunda-feira

    Tempo Temperatura Precipitação Vento Pressão Humidade
    00:00 +20°C° 0 mm 2 m/s 752 mmHg 86%
    01:00 +20°C° 0 mm 1 m/s 752 mmHg 85%
    02:00 +20°C° 0 mm 1 m/s 752 mmHg 85%
    03:00 +20°C° 0 mm 1 m/s 753 mmHg 85%
    04:00 +18°C° 0 mm 2 m/s 753 mmHg 85%
    05:00 +20°C° 0 mm 2 m/s 753 mmHg 82%
    06:00 +21°C° 0 mm 2 m/s 753 mmHg 79%
    07:00 +22°C° 0 mm 3 m/s 754 mmHg 76%
    08:00 +25°C° 0 mm 3 m/s 754 mmHg 67%
    09:00 +26°C° 0 mm 3 m/s 754 mmHg 57%
    10:00 +28°C° 0 mm 3 m/s 754 mmHg 48%
    11:00 +29°C° 0 mm 3 m/s 754 mmHg 45%
    12:00 +30°C° 0 mm 3 m/s 754 mmHg 42%
    13:00 +31°C° 0 mm 3 m/s 753 mmHg 40%
    14:00 +31°C° 0 mm 3 m/s 753 mmHg 40%
    15:00 +31°C° 0 mm 2 m/s 753 mmHg 41%
    16:00 +30°C° 0 mm 2 m/s 753 mmHg 41%
    17:00 +29°C° 0 mm 2 m/s 752 mmHg 46%
    18:00 +27°C° 0 mm 2 m/s 752 mmHg 52%
    19:00 +25°C° 0 mm 1 m/s 752 mmHg 57%
    20:00 +24°C° 0 mm 1 m/s 753 mmHg 58%
    21:00 +23°C° 0 mm 1 m/s 753 mmHg 59%
    22:00 +22°C° 0 mm 1 m/s 753 mmHg 59%
    23:00 +22°C° 0 mm 1 m/s 753 mmHg 61%

    23 Julho, Terça-feira

    Tempo Temperatura Precipitação Vento Pressão Humidade
    00:00 +20°C° 0 mm 2 m/s 753 mmHg 63%
    01:00 +19°C° 0 mm 2 m/s 753 mmHg 65%
    02:00 +19°C° 0 mm 2 m/s 753 mmHg 68%
    03:00 +19°C° 0 mm 1 m/s 753 mmHg 70%
    04:00 +19°C° 0 mm 1 m/s 753 mmHg 73%
    05:00 +19°C° 0 mm 2 m/s 753 mmHg 71%
    06:00 +21°C° 0 mm 2 m/s 753 mmHg 68%
    07:00 +23°C° 0 mm 2 m/s 753 mmHg 66%
    08:00 +25°C° 0 mm 2 m/s 753 mmHg 60%
    09:00 +26°C° 0 mm 2 m/s 753 mmHg 53%
    10:00 +28°C° 0 mm 3 m/s 753 mmHg 47%
    11:00 +29°C° 0 mm 3 m/s 753 mmHg 43%
    12:00 +30°C° 0 mm 3 m/s 752 mmHg 40%
    13:00 +31°C° 0 mm 3 m/s 752 mmHg 37%
    14:00 +31°C° 0 mm 3 m/s 751 mmHg 37%
    15:00 +33°C° 0 mm 4 m/s 751 mmHg 37%
    16:00 +33°C° 0 mm 4 m/s 751 mmHg 37%
    17:00 +30°C° 0 mm 3 m/s 751 mmHg 43%
    18:00 +28°C° 0 mm 3 m/s 751 mmHg 50%
    19:00 +26°C° 0 mm 3 m/s 750 mmHg 56%
    20:00 +25°C° 0 mm 2 m/s 751 mmHg 59%
    21:00 +23°C° 0 mm 1 m/s 751 mmHg 62%
    22:00 +22°C° 0 mm 1 m/s 751 mmHg 65%
    23:00 +22°C° 0 mm 1 m/s 751 mmHg 66%

    24 Julho, Quarta-feira

    Tempo Temperatura Precipitação Vento Pressão Humidade
    00:00 +21°C° 0 mm 1 m/s 751 mmHg 68%
    01:00 +21°C° 0 mm 1 m/s 751 mmHg 70%
    02:00 +20°C° 0 mm 1 m/s 751 mmHg 72%
    03:00 +20°C° 0 mm 1 m/s 751 mmHg 74%
    04:00 +20°C° 0 mm 1 m/s 751 mmHg 76%
    05:00 +21°C° 0 mm 1 m/s 751 mmHg 72%
    06:00 +21°C° 0 mm 2 m/s 751 mmHg 69%
    07:00 +24°C° 0 mm 2 m/s 751 mmHg 65%
    08:00 +26°C° 0 mm 2 m/s 751 mmHg 59%
    09:00 +28°C° 0 mm 2 m/s 751 mmHg 53%
    10:00 +29°C° 0 mm 3 m/s 751 mmHg 47%
    11:00 +30°C° 0 mm 2 m/s 751 mmHg 43%
    12:00 +31°C° 0 mm 2 m/s 751 mmHg 39%
    13:00 +34°C° 0 mm 2 m/s 750 mmHg 36%
    14:00 +34°C° 0 mm 2 m/s 750 mmHg 35%
    15:00 +34°C° 0 mm 2 m/s 750 mmHg 35%
    16:00 +34°C° 0 mm 2 m/s 750 mmHg 35%
    17:00 +31°C° 0 mm 2 m/s 749 mmHg 43%
    18:00 +29°C° 0 mm 2 m/s 749 mmHg 51%
    19:00 +27°C° 0 mm 2 m/s 749 mmHg 59%
    20:00 +26°C° 0 mm 2 m/s 750 mmHg 63%
    21:00 +24°C° 0 mm 2 m/s 750 mmHg 67%
    22:00 +23°C° 0 mm 2 m/s 750 mmHg 71%
    23:00 +22°C° 0 mm 1 m/s 750 mmHg 75%

    25 Julho, Quinta-feira

    Tempo Temperatura Precipitação Vento Pressão Humidade
    00:00 +22°C° 0 mm 1 m/s 750 mmHg 79%
    01:00 +21°C° 0 mm 1 m/s 750 mmHg 83%
    02:00 +21°C° 0 mm 1 m/s 750 mmHg 84%
    03:00 +19°C° 0 mm 0 m/s 750 mmHg 85%
    04:00 +18°C° 0 mm 0 m/s 750 mmHg 86%
    05:00 +20°C° 0 mm 0 m/s 750 mmHg 80%
    06:00 +22°C° 0 mm 0 m/s 750 mmHg 73%
    07:00 +26°C° 0 mm 1 m/s 751 mmHg 67%
    08:00 +27°C° 0 mm 1 m/s 751 mmHg 61%
    09:00 +29°C° 0 mm 1 m/s 751 mmHg 54%
    10:00 +31°C° 0 mm 2 m/s 750 mmHg 48%
    11:00 +32°C° 0 mm 2 m/s 750 mmHg 46%
    12:00 +32°C° 0 mm 2 m/s 750 mmHg 43%
    13:00 +34°C° 0 mm 2 m/s 749 mmHg 41%
    14:00 +34°C° 0 mm 2 m/s 749 mmHg 41%
    15:00 +34°C° 0 mm 2 m/s 749 mmHg 41%
    16:00 +34°C° 0 mm 2 m/s 749 mmHg 42%
    17:00 +31°C° 0 mm 2 m/s 749 mmHg 48%
    18:00 +30°C° 0 mm 2 m/s 748 mmHg 55%
    19:00 +28°C° 0 mm 2 m/s 748 mmHg 61%
    20:00 +27°C° 0 mm 2 m/s 749 mmHg 66%
    21:00 +25°C° 0 mm 2 m/s 749 mmHg 70%
    22:00 +24°C° 0 mm 2 m/s 749 mmHg 74%
    23:00 +24°C° 0 mm 1 m/s 749 mmHg 76%
    Mostrar mais